Home   Weather   Koudougou   Past weeks

Flag for Burkina Faso Past Weather in Koudougou, Burkina Faso — Yesterday and Last 2 Weeks

Now
99 °F

Passing clouds.


Feels Like: 95 °F
Forecast: N/A
Wind: 9 mph from Northeast

Location: Ouagadougou Airport

Current Time: Dec 3, 2016 at 3:50:18 pm

Latest Report: Dec 3, 2016 at 3:00 pm


Visibility: N/A

Pressure: 29.86 "Hg

Humidity: 17%

Dew Point: 46 °F

Location of KoudougouLocation

Past Weather in Koudougou — Graph

°F

Koudougou Temperature Yesterday

Maximum temperature yesterday: 100 °F (at 12:00 pm)
Minimum temperature yesterday: 68 °F (at 5:00 am)
Average temperature yesterday: 85 °F

High & Low Weather Summary for the Past Weeks

 TemperatureHumidityPressure
High102 °F (Nov 24, 3:00 pm)69% (Nov 24, 2:00 am)30.01 "Hg (Nov 24, 2:00 am)
Low68 °F (Nov 22, 5:00 am)14% (Nov 25, 2:00 pm)29.77 "Hg (Nov 18, 3:00 pm)
Average84 °F36%29.88 "Hg
* Reported Nov 18 2:00 pm — Dec 3 2:00 pm, Koudougou, Weather by CustomWeather, © 2016

Note: Actual official high and low records may vary slightly from our data, if they occured in-between our weather recording intervals... More about our weather records

Advertising

Koudougou Weather History for the Previous 24 Hours

Scroll right to see more
 ConditionsComfort  
Time TempWeatherWind HumidityBarometerVisibility
2:00 pm
Sat, Dec 3
99 °FPassing clouds.10 mph16%29.86 "HgN/A
1:00 pm97 °FPassing clouds.10 mph17%29.89 "HgN/A
12:00 pm97 °FPassing clouds.12 mph18%29.92 "HgN/A
11:00 am95 °FPassing clouds.13 mph20%29.95 "HgN/A
10:00 am93 °FClear.13 mph21%29.98 "Hg5 mi
9:00 am86 °FClear.9 mph27%29.98 "Hg5 mi
8:00 am81 °FClear.3 mph34%29.98 "Hg4 mi
7:00 am68 °FClear.1 mph49%29.92 "Hg5 mi
6:00 am68 °FClear.2 mph49%29.92 "Hg5 mi
5:00 am72 °FClear.2 mph44%29.92 "Hg5 mi
4:00 am70 °FClear.No wind50%29.89 "Hg5 mi
3:00 am73 °FClear.3 mph41%29.89 "Hg5 mi
1:00 am75 °FClear.3 mph36%29.92 "Hg5 mi
12:00 am77 °FClear.6 mph34%29.92 "Hg5 mi
11:00 pm
Fri, Dec 2
79 °FClear.5 mph34%29.92 "Hg5 mi
10:00 pm81 °FClear.5 mph32%29.92 "Hg5 mi
9:00 pm82 °FClear.5 mph30%29.92 "Hg5 mi
8:00 pm81 °FClear.2 mph30%29.92 "Hg5 mi
7:00 pm84 °FClear.1 mph27%29.89 "Hg4 mi
6:00 pm90 °FClear.7 mph21%29.89 "Hg4 mi
5:00 pm97 °FSunny.10 mph16%29.86 "Hg10 mi
4:00 pm100 °FSunny.12 mph15%29.86 "Hg10 mi
3:00 pm100 °FPassing clouds.13 mph15%29.86 "HgN/A
Weather by CustomWeather, © 2016

See weather overviewHow to use our weather pages